User: anonymous   Login
Location: Zlin
(49.2330°N, 17.6670°E)
Time: 00:42:08
(UTC+02:00)
Language:

ISS - Orbit

View from above orbital plane
View from above orbital plane
View from above satellite
View from above satellite

Ground track
Ground track

The orbit data is extracted from the following two-line orbital elements,

1 25544U 98067A   24149.51140801  .00018442  00000-0  32372-3 0  9999
2 25544  51.6397  52.8338 0005655 239.3246 313.5976 15.50566673455497
Epoch (UTC): 28 May 2024 12:16:25
Eccentricity: 0.0005655
inclination: 51.6397°
perigee height: 411 km
apogee height: 419 km
right ascension of ascending node: 52.8338°
argument of perigee: 239.3246°
revolutions per day: 15.50566673
mean anomaly at epoch: 313.5976°
orbit number at epoch: 45549

The dashed part of the orbit path shows where the satellite is in the earth's shadow,  

DLR